• In France
  • List of Countries
  • For 7 days
  • Water Temperature
  • Satellite Maps
  • Weather Map
  • Weather Widgets
  • user-avatar
    Login

    Hourly Weather Canillo

    Today, 25 September, Tuesday

    Time Temperature Precipitation Wind Pressure Humidity
    00:00 +5°C° 0 mm 2 mps 624 mmHg 67%
    01:00 +5°C° 0 mm 2 mps 624 mmHg 64%
    02:00 +6°C° 0 mm 1 mps 624 mmHg 61%
    03:00 +6°C° 0 mm 1 mps 624 mmHg 59%
    04:00 +6°C° 0 mm 1 mps 624 mmHg 59%
    05:00 +6°C° 0 mm 1 mps 624 mmHg 59%
    06:00 +6°C° 0 mm 1 mps 624 mmHg 55%
    07:00 +8°C° 0 mm 1 mps 625 mmHg 52%
    08:00 +10°C° 0 mm 1 mps 626 mmHg 50%
    09:00 +13°C° 0 mm 1 mps 627 mmHg 48%
    10:00 +14°C° 0 mm 2 mps 628 mmHg 47%
    11:00 +15°C° 0 mm 2 mps 628 mmHg 45%
    12:00 +16°C° 0 mm 2 mps 628 mmHg 44%
    13:00 +16°C° 0 mm 2 mps 628 mmHg 47%
    14:00 +15°C° 0 mm 2 mps 628 mmHg 49%
    15:00 +15°C° 0 mm 2 mps 627 mmHg 52%
    16:00 +13°C° 0 mm 2 mps 627 mmHg 59%
    17:00 +12°C° 0 mm 2 mps 627 mmHg 67%
    18:00 +10°C° 0 mm 1 mps 626 mmHg 74%
    19:00 +10°C° 0 mm 1 mps 626 mmHg 78%
    20:00 +9°C° 0 mm 1 mps 626 mmHg 82%
    21:00 +8°C° 0 mm 1 mps 626 mmHg 86%
    22:00 +7°C° 0 mm 2 mps 627 mmHg 86%
    23:00 +7°C° 0 mm 2 mps 627 mmHg 86%

    Tomorrow, 26 September, Wednesday

    Time Temperature Precipitation Wind Pressure Humidity
    00:00 +7°C° 0 mm 2 mps 627 mmHg 86%
    01:00 +7°C° 0 mm 2 mps 626 mmHg 85%
    02:00 +6°C° 0 mm 2 mps 626 mmHg 84%
    03:00 +6°C° 0 mm 2 mps 626 mmHg 83%
    04:00 +6°C° 0 mm 2 mps 626 mmHg 82%
    05:00 +6°C° 0 mm 2 mps 627 mmHg 81%
    06:00 +6°C° 0 mm 2 mps 627 mmHg 80%
    07:00 +8°C° 0 mm 2 mps 628 mmHg 73%
    08:00 +11°C° 0 mm 3 mps 629 mmHg 66%
    09:00 +13°C° 0 mm 3 mps 630 mmHg 58%
    10:00 +14°C° 0 mm 3 mps 631 mmHg 54%
    11:00 +16°C° 0 mm 3 mps 631 mmHg 50%
    12:00 +18°C° 0 mm 3 mps 632 mmHg 45%
    13:00 +17°C° 0 mm 3 mps 632 mmHg 46%
    14:00 +17°C° 0 mm 3 mps 631 mmHg 46%
    15:00 +17°C° 0 mm 3 mps 631 mmHg 47%
    16:00 +14°C° 0 mm 3 mps 630 mmHg 56%
    17:00 +13°C° 0 mm 2 mps 630 mmHg 65%
    18:00 +10°C° 0 mm 2 mps 629 mmHg 73%
    19:00 +9°C° 0 mm 2 mps 629 mmHg 76%
    20:00 +8°C° 0 mm 2 mps 629 mmHg 79%
    21:00 +9°C° 0 mm 1 mps 629 mmHg 82%
    22:00 +8°C° 0 mm 1 mps 629 mmHg 82%
    23:00 +8°C° 0 mm 1 mps 628 mmHg 81%

    Day after tomorrow, 27 September, Thursday

    Time Temperature Precipitation Wind Pressure Humidity
    00:00 +8°C° 0 mm 1 mps 628 mmHg 81%
    01:00 +8°C° 0 mm 1 mps 628 mmHg 81%
    02:00 +8°C° 0 mm 1 mps 628 mmHg 80%
    03:00 +8°C° 0 mm 1 mps 628 mmHg 80%
    04:00 +8°C° 0 mm 1 mps 627 mmHg 79%
    05:00 +7°C° 0 mm 1 mps 627 mmHg 77%
    06:00 +7°C° 0 mm 1 mps 627 mmHg 76%
    07:00 +10°C° 0 mm 1 mps 628 mmHg 67%
    08:00 +13°C° 0 mm 1 mps 630 mmHg 58%
    09:00 +16°C° 0 mm 1 mps 631 mmHg 48%
    10:00 +18°C° 0 mm 1 mps 631 mmHg 45%
    11:00 +20°C° 0 mm 1 mps 632 mmHg 43%
    12:00 +20°C° 0 mm 2 mps 632 mmHg 40%
    13:00 +20°C° 0 mm 2 mps 631 mmHg 41%
    14:00 +20°C° 0 mm 2 mps 631 mmHg 42%
    15:00 +19°C° 0 mm 2 mps 630 mmHg 43%
    16:00 +18°C° 0 mm 1 mps 629 mmHg 53%
    17:00 +14°C° 0 mm 1 mps 628 mmHg 63%
    18:00 +12°C° 0 mm 1 mps 627 mmHg 73%
    19:00 +11°C° 0 mm 1 mps 627 mmHg 74%
    20:00 +11°C° 0 mm 1 mps 627 mmHg 76%
    21:00 +10°C° 0 mm 1 mps 626 mmHg 77%
    22:00 +10°C° 0 mm 1 mps 626 mmHg 75%
    23:00 +10°C° 0 mm 1 mps 626 mmHg 74%

    28 September, Friday

    Time Temperature Precipitation Wind Pressure Humidity
    00:00 +10°C° 0 mm 1 mps 625 mmHg 72%
    01:00 +9°C° 0 mm 2 mps 625 mmHg 67%
    02:00 +8°C° 0 mm 2 mps 624 mmHg 62%
    03:00 +8°C° 0 mm 2 mps 624 mmHg 58%
    04:00 +8°C° 0 mm 2 mps 624 mmHg 57%
    05:00 +8°C° 0 mm 2 mps 623 mmHg 56%
    06:00 +8°C° 0 mm 2 mps 623 mmHg 55%
    07:00 +10°C° 0 mm 2 mps 624 mmHg 50%
    08:00 +14°C° 0 mm 2 mps 625 mmHg 45%
    09:00 +18°C° 0 mm 1 mps 626 mmHg 40%
    10:00 +18°C° 0 mm 2 mps 626 mmHg 38%
    11:00 +19°C° 0 mm 2 mps 627 mmHg 35%
    12:00 +20°C° 0 mm 2 mps 627 mmHg 33%
    13:00 +20°C° 0 mm 2 mps 626 mmHg 34%
    14:00 +20°C° 0 mm 2 mps 625 mmHg 35%
    15:00 +20°C° 0 mm 2 mps 625 mmHg 36%
    16:00 +17°C° 0 mm 2 mps 624 mmHg 44%
    17:00 +15°C° 0 mm 2 mps 623 mmHg 52%
    18:00 +13°C° 0 mm 2 mps 622 mmHg 60%
    19:00 +12°C° 0 mm 2 mps 621 mmHg 61%
    20:00 +10°C° 0 mm 2 mps 621 mmHg 62%
    21:00 +10°C° 0 mm 2 mps 621 mmHg 64%
    22:00 +9°C° 0 mm 2 mps 621 mmHg 64%
    23:00 +9°C° 0 mm 2 mps 621 mmHg 63%

    29 September, Saturday

    Time Temperature Precipitation Wind Pressure Humidity
    00:00 +9°C° 0 mm 2 mps 620 mmHg 63%
    01:00 +10°C° 0 mm 1 mps 620 mmHg 63%
    02:00 +9°C° 0 mm 1 mps 620 mmHg 63%
    03:00 +9°C° 0 mm 1 mps 620 mmHg 63%
    04:00 +9°C° 0 mm 1 mps 620 mmHg 62%
    05:00 +9°C° 0 mm 1 mps 620 mmHg 62%
    06:00 +9°C° 0 mm 1 mps 620 mmHg 61%
    07:00 +12°C° 0 mm 1 mps 621 mmHg 54%
    08:00 +15°C° 0 mm 1 mps 622 mmHg 47%
    09:00 +19°C° 0 mm 1 mps 624 mmHg 40%
    10:00 +20°C° 0 mm 1 mps 624 mmHg 38%
    11:00 +19°C° 0 mm 2 mps 624 mmHg 37%
    12:00 +20°C° 0 mm 2 mps 624 mmHg 36%
    13:00 +20°C° 0 mm 2 mps 624 mmHg 37%
    14:00 +20°C° 0 mm 2 mps 623 mmHg 38%
    15:00 +20°C° 0 mm 2 mps 623 mmHg 39%
    16:00 +18°C° 0 mm 2 mps 622 mmHg 46%
    17:00 +15°C° 0 mm 1 mps 621 mmHg 53%
    18:00 +13°C° 0 mm 1 mps 621 mmHg 61%
    19:00 +12°C° 0 mm 1 mps 621 mmHg 63%
    20:00 +12°C° 0 mm 1 mps 621 mmHg 66%
    21:00 +11°C° 0 mm 1 mps 621 mmHg 68%
    22:00 +11°C° 0 mm 1 mps 621 mmHg 69%
    23:00 +10°C° 0 mm 1 mps 620 mmHg 70%

    30 September, Sunday

    Time Temperature Precipitation Wind Pressure Humidity
    00:00 +10°C° 0 mm 1 mps 620 mmHg 70%
    01:00 +10°C° 0 mm 1 mps 620 mmHg 71%
    02:00 +9°C° 0 mm 1 mps 620 mmHg 73%
    03:00 +9°C° 0 mm 1 mps 620 mmHg 74%
    04:00 +9°C° 0 mm 1 mps 620 mmHg 74%
    05:00 +9°C° 0 mm 1 mps 620 mmHg 75%
    06:00 +8°C° 0 mm 1 mps 620 mmHg 75%
    07:00 +11°C° 0 mm 1 mps 621 mmHg 66%
    08:00 +14°C° 0 mm 1 mps 622 mmHg 57%
    09:00 +16°C° 0 mm 1 mps 623 mmHg 48%
    10:00 +17°C° 0 mm 2 mps 623 mmHg 46%
    11:00 +18°C° 0 mm 2 mps 624 mmHg 44%
    12:00 +19°C° 0 mm 2 mps 624 mmHg 43%
    13:00 +18°C° 0.1 mm 2 mps 623 mmHg 46%
    14:00 +18°C° 0.1 mm 2 mps 623 mmHg 49%
    15:00 +17°C° 0.1 mm 2 mps 623 mmHg 52%
    16:00 +15°C° 0.2 mm 2 mps 622 mmHg 61%
    17:00 +13°C° 0.2 mm 1 mps 621 mmHg 70%
    18:00 +11°C° 0.2 mm 1 mps 621 mmHg 79%
    19:00 +11°C° 0.1 mm 1 mps 621 mmHg 82%
    20:00 +10°C° 0.1 mm 1 mps 621 mmHg 85%
    21:00 +10°C° 0.1 mm 1 mps 621 mmHg 88%
    22:00 +10°C° 0.1 mm 1 mps 621 mmHg 89%
    23:00 +8°C° 0.1 mm 2 mps 621 mmHg 89%
    Show more